Cloud_Cover
38 83 90 87 71 96 99 97 92 45 5 6 31 6 5 5 5 5 2 2 5 5 5 24 13 54 18 10 33 0 0 0 2 0 0 0 0 0 0 2 0 0 0
50 91 100 100 100 100 62 100 100 94 96 97 99 100 95 83 16 5 8 5 8 5 8 10 5 1 3 1 4 0 0 0 0 0 0 12 5 5 5 0 0 0 0
23 100 100 98 59 87 67 98 92 76 46 100 97 78 100 100 99 100 98 33 23 13 57 14 5 98 2 0 0 0 0 0 5 5 2 26 89 99 5 0 0 0 0
59 85 100 100 76 100 94 100 100 100 90 100 97 92 100 100 100 100 100 75 100 100 87 64 5 2 0 2 5 3 16 94 1 10 83 100 100 80 4 0 0 0 0
21 29 100 100 100 93 100 100 100 100 71 100 97 100 100 100 100 100 100 100 100 100 91 53 5 78 42 100 37 100 92 11 23 24 100 100 100 96 5 0 0 0 0
44 92 100 99 100 95 100 100 100 100 100 100 100 100 100 100 100 100 100 100 100 100 100 52 89 100 100 75 100 100 100 10 100 65 96 49 5 5 0 0 0 0 0
100 100 100 100 100 100 100 100 100 100 100 100 100 100 100 100 100 100 100 100 99 100 100 100 99 56 88 100 100 100 100 79 100 100 77 25 4 4 0 0 0 0 0
100 100 100 100 100 100 100 100 100 100 100 100 100 100 100 100 100 100 100 100 100 100 100 99 71 100 100 100 100 100 64 54 90 84 9 59 5 5 0 0 0 0 0
100 100 100 100 100 100 100 100 100 100 100 100 100 100 100 100 100 100 100 100 100 38 81 100 99 100 100 100 100 100 100 67 93 56 6 11 33 2 0 0 0 0 0
100 100 100 100 100 100 100 100 100 100 100 100 100 100 100 100 100 100 100 100 100 100 100 100 100 100 100 100 38 11 98 99 40 7 9 12 3 0 0 0 0 0 0
100 100 100 100 100 100 100 100 100 100 100 100 100 100 100 100 100 100 100 100 100 100 100 100 98 100 100 100 7 98 66 10 80 33 5 0 4 0 0 0 5 10 14
100 100 100 100 100 100 100 100 100 100 100 100 100 100 100 100 100 100 100 100 100 100 100 100 86 78 92 92 27 26 83 31 5 2 5 5 5 4 0 3 6 1 44
100 100 100 100 100 100 100 100 100 100 100 100 100 100 100 100 100 100 100 100 100 100 100 100 100 100 100 93 57 67 90 14 5 2 19 0 46 98 77 3 5 0 4
100 100 100 100 100 100 100 100 100 100 100 100 100 100 100 100 100 100 100 100 100 100 100 100 100 100 91 94 66 40 90 100 87 86 30 75 16 13 6 17 5 5 0
100 100 100 100 100 100 100 100 100 100 100 100 100 100 100 100 100 100 100 100 100 100 100 100 100 100 75 84 46 86 27 37 100 38 97 93 17 4 5 8 5 0 0
100 100 100 100 100 100 100 100 100 100 100 100 100 100 100 100 100 100 100 100 100 100 100 94 97 34 6 10 52 54 63 100 100 100 100 20 86 37 0 2 2 30 4
100 100 100 100 100 100 100 100 100 100 100 100 100 100 100 100 100 100 100 99 100 100 8 5 0 1 2 14 39 8 0 0 0 1 0 0 0 0 0 1 26 83 80
73 100 98 100 100 100 100 100 100 100 100 100 100 100 100 100 100 100 100 100 92 23 5 5 5 0 0 0 0 0 0 0 0 0 0 0 0 5 4 4 8 43 14
100 91 99 86 100 100 52 100 100 100 100 100 100 99 84 80 94 94 26 26 5 5 5 3 0 0 0 0 0 0 0 0 0 0 0 0 0 2 43 96 100 100 100
100 71 47 10 5 99 100 92 100 68 41 100 96 66 88 85 62 38 29 10 5 1 0 0 0 0 0 0 0 0 0 0 0 0 0 0 0 4 68 92 60 75 64
27 5 77 100 100 100 68 40 88 59 5 5 23 5 6 6 5 5 0 0 0 2 0 0 0 0 0 0 0 0 0 0 0 0 0 0 0 2 90 100 90 64 48
59 5 14 53 100 41 5 74 60 5 5 5 22 5 4 0 0 0 5 5 5 5 1 0 0 0 0 0 0 0 0 0 0 0 0 5 14 61 40 96 100 99 93
20 3 38 46 86 25 5 5 10 5 25 2 0 0 0 0 2 5 5 43 5 63 4 0 0 0 0 0 0 0 0 1 2 1 5 31 71 25 5 5 18 41 57
8 22 5 5 5 35 24 23 2 0 0 0 0 0 0 1 5 5 5 21 80 36 4 0 0 0 0 0 1 4 1 4 5 2 1 4 0 2 2 0 4 5 5
4 18 5 5 2 1 0 5 0 0 0 0 0 0 0 5 16 5 5 5 5 5 0 0 0 0 3 5 5 5 5 5 5 5 5 2 0 0 0 0 0 0 2
100 100 60 43 38 1 4 4 5 5 2 3 1 5 8 80 10 10 5 14 60 5 5 2 1 5 5 5 5 10 5 5 8 16 5 0 0 0 0 0 0 0 0